Time,TemperatureF,DewpointF,PressureIn,WindDirection,WindDirectionDegrees,WindSpeedMPH,WindSpeedGustMPH,Humidity,HourlyPrecipIn,Conditions,Clouds,dailyrainin,SoftwareType,DateUTC
2013-01-26 00:02:00,41.0,26.0,30.15,NNE,13,0.0,-999.0,54,-99.99,,,-99.99,,2013-01-26 06:02:00,
2013-01-26 00:12:00,41.0,26.0,30.15,NNE,13,0.0,-999.0,54,-99.99,,,-99.99,,2013-01-26 06:12:00,
2013-01-26 00:21:00,41.0,27.0,30.16,North,11,0.0,-999.0,56,-99.99,,,-99.99,,2013-01-26 06:21:00,
2013-01-26 00:31:00,41.0,26.0,30.15,North,360,0.0,-999.0,55,-99.99,,,-99.99,,2013-01-26 06:31:00,
2013-01-26 00:41:00,41.0,26.0,30.15,North,360,0.0,-999.0,55,-99.99,,,-99.99,,2013-01-26 06:41:00,
2013-01-26 00:52:00,41.0,26.0,30.15,North,360,0.0,-999.0,54,-99.99,,,-99.99,,2013-01-26 06:52:00,
2013-01-26 01:01:00,41.0,26.0,30.15,NNE,18,0.0,-999.0,55,-99.99,,,-99.99,,2013-01-26 07:01:00,
2013-01-26 01:12:00,41.0,26.0,30.15,NNE,18,0.0,-999.0,55,-99.99,,,-99.99,,2013-01-26 07:12:00,
2013-01-26 01:21:00,41.0,26.0,30.16,NNE,25,0.0,-999.0,55,-99.99,,,-99.99,,2013-01-26 07:21:00,
2013-01-26 01:33:00,41.0,27.0,30.16,NE,47,0.0,-999.0,56,-99.99,,,-99.99,,2013-01-26 07:33:00,
2013-01-26 01:41:00,41.0,27.0,30.16,NE,47,0.0,-999.0,56,-99.99,,,-99.99,,2013-01-26 07:41:00,
2013-01-26 01:52:00,41.0,27.0,30.15,NNE,27,1.0,-999.0,56,-99.99,,,-99.99,,2013-01-26 07:52:00,
2013-01-26 02:02:00,40.0,26.0,30.14,NE,49,1.0,-999.0,57,-99.99,,,-99.99,,2013-01-26 08:02:00,
2013-01-26 02:11:00,40.0,26.0,30.14,NE,49,1.0,-999.0,57,-99.99,,,-99.99,,2013-01-26 08:11:00,
2013-01-26 02:21:00,40.0,26.0,30.15,NE,38,0.0,-999.0,58,-99.99,,,-99.99,,2013-01-26 08:21:00,
2013-01-26 02:31:00,39.0,25.0,30.15,NE,42,1.0,-999.0,58,-99.99,,,-99.99,,2013-01-26 08:31:00,
2013-01-26 02:42:00,39.0,25.0,30.15,NE,42,1.0,-999.0,58,-99.99,,,-99.99,,2013-01-26 08:42:00,
2013-01-26 02:54:00,39.0,26.0,30.14,NE,56,1.0,-999.0,60,-99.99,,,-99.99,,2013-01-26 08:54:00,
2013-01-26 03:02:00,39.0,26.0,30.14,ENE,62,1.0,-999.0,59,-99.99,,,-99.99,,2013-01-26 09:02:00,
2013-01-26 03:11:00,39.0,26.0,30.14,ENE,62,1.0,-999.0,59,-99.99,,,-99.99,,2013-01-26 09:11:00,
2013-01-26 03:22:00,39.0,26.0,30.13,NE,44,1.0,-999.0,60,-99.99,,,-99.99,,2013-01-26 09:22:00,
2013-01-26 03:31:00,38.0,26.0,30.13,NE,42,1.0,-999.0,61,-99.99,,,-99.99,,2013-01-26 09:31:00,
2013-01-26 03:42:00,38.0,26.0,30.13,NE,42,1.0,-999.0,61,-99.99,,,-99.99,,2013-01-26 09:42:00,
2013-01-26 03:52:00,39.0,27.0,30.12,ENE,62,1.0,-999.0,61,-99.99,,,-99.99,,2013-01-26 09:52:00,
2013-01-26 04:01:00,38.0,26.0,30.11,NE,56,0.0,-999.0,61,-99.99,,,-99.99,,2013-01-26 10:01:00,
2013-01-26 04:11:00,38.0,26.0,30.11,NE,56,0.0,-999.0,61,-99.99,,,-99.99,,2013-01-26 10:11:00,
2013-01-26 04:21:00,39.0,27.0,30.11,NNE,27,1.0,-999.0,61,-99.99,,,-99.99,,2013-01-26 10:21:00,
2013-01-26 04:31:00,39.0,27.0,30.11,NNE,28,1.0,-999.0,62,-99.99,,,-99.99,,2013-01-26 10:31:00,
2013-01-26 04:42:00,39.0,27.0,30.11,NNE,28,1.0,-999.0,62,-99.99,,,-99.99,,2013-01-26 10:42:00,
2013-01-26 04:52:00,39.0,27.0,30.11,NE,48,1.0,-999.0,62,-99.99,,,-99.99,,2013-01-26 10:52:00,
2013-01-26 05:01:00,38.0,27.0,30.12,NE,49,1.0,-999.0,63,-99.99,,,-99.99,,2013-01-26 11:01:00,
2013-01-26 05:12:00,38.0,27.0,30.12,NE,49,1.0,-999.0,63,-99.99,,,-99.99,,2013-01-26 11:12:00,
2013-01-26 05:22:00,38.0,27.0,30.11,NE,56,0.0,-999.0,64,-99.99,,,-99.99,,2013-01-26 11:22:00,
2013-01-26 05:32:00,38.0,27.0,30.12,ENE,58,0.0,-999.0,65,-99.99,,,-99.99,,2013-01-26 11:32:00,
2013-01-26 05:42:00,38.0,27.0,30.12,ENE,58,0.0,-999.0,65,-99.99,,,-99.99,,2013-01-26 11:42:00,
2013-01-26 05:52:00,37.0,27.0,30.12,ENE,69,0.0,-999.0,66,-99.99,,,-99.99,,2013-01-26 11:52:00,
2013-01-26 06:02:00,37.0,27.0,30.12,ENE,69,0.0,-999.0,67,-99.99,,,-99.99,,2013-01-26 12:02:00,
2013-01-26 06:12:00,37.0,27.0,30.12,ENE,69,0.0,-999.0,67,-99.99,,,-99.99,,2013-01-26 12:12:00,
2013-01-26 06:22:00,36.0,27.0,30.12,ENE,69,0.0,-999.0,69,-99.99,,,-99.99,,2013-01-26 12:22:00,
2013-01-26 06:33:00,35.0,26.0,30.12,ENE,69,0.0,-999.0,70,-99.99,,,-99.99,,2013-01-26 12:33:00,
2013-01-26 06:42:00,35.0,26.0,30.12,ENE,69,0.0,-999.0,70,-99.99,,,-99.99,,2013-01-26 12:42:00,
2013-01-26 06:53:00,34.0,26.0,30.13,ENE,69,0.0,-999.0,73,-99.99,,,-99.99,,2013-01-26 12:53:00,
2013-01-26 07:03:00,34.0,27.0,30.14,ENE,69,0.0,-999.0,74,-99.99,,,-99.99,,2013-01-26 13:03:00,
2013-01-26 07:12:00,34.0,27.0,30.14,ENE,69,0.0,-999.0,74,-99.99,,,-99.99,,2013-01-26 13:12:00,
2013-01-26 07:22:00,33.0,26.0,30.14,ENE,69,0.0,-999.0,76,-99.99,,,-99.99,,2013-01-26 13:22:00,
2013-01-26 07:32:00,33.0,27.0,30.14,ENE,69,0.0,-999.0,77,-99.99,,,-99.99,,2013-01-26 13:32:00,
2013-01-26 07:42:00,33.0,27.0,30.14,ENE,69,0.0,-999.0,77,-99.99,,,-99.99,,2013-01-26 13:42:00,
2013-01-26 07:53:00,33.0,27.0,30.14,ENE,69,0.0,-999.0,77,-99.99,,,-99.99,,2013-01-26 13:53:00,
2013-01-26 08:02:00,33.0,27.0,30.15,ENE,69,0.0,-999.0,77,-99.99,,,-99.99,,2013-01-26 14:02:00,
2013-01-26 08:11:00,33.0,27.0,30.15,ENE,69,0.0,-999.0,77,-99.99,,,-99.99,,2013-01-26 14:11:00,
2013-01-26 08:21:00,33.0,27.0,30.14,ENE,69,0.0,-999.0,78,-99.99,,,-99.99,,2013-01-26 14:21:00,
2013-01-26 08:32:00,34.0,28.0,30.14,ENE,69,0.0,-999.0,77,-99.99,,,-99.99,,2013-01-26 14:32:00,
2013-01-26 08:43:00,34.0,28.0,30.14,ENE,69,0.0,-999.0,77,-99.99,,,-99.99,,2013-01-26 14:43:00,
2013-01-26 08:53:00,37.0,28.0,30.14,East,86,0.0,-999.0,71,-99.99,,,-99.99,,2013-01-26 14:53:00,
2013-01-26 09:02:00,39.0,30.0,30.14,ESE,121,0.0,-999.0,69,-99.99,,,-99.99,,2013-01-26 15:02:00,
2013-01-26 09:12:00,39.0,30.0,30.14,ESE,121,0.0,-999.0,69,-99.99,,,-99.99,,2013-01-26 15:12:00,
2013-01-26 09:22:00,41.0,32.0,30.15,SE,124,0.0,-999.0,70,-99.99,,,-99.99,,2013-01-26 15:22:00,
2013-01-26 09:32:00,42.0,33.0,30.16,East,95,0.0,-999.0,70,-99.99,,,-99.99,,2013-01-26 15:32:00,
2013-01-26 09:43:00,42.0,33.0,30.16,East,95,0.0,-999.0,70,-99.99,,,-99.99,,2013-01-26 15:43:00,
2013-01-26 09:53:00,44.0,34.0,30.16,SE,130,0.0,-999.0,68,-99.99,,,-99.99,,2013-01-26 15:53:00,
2013-01-26 10:02:00,44.0,33.0,30.16,ESE,112,0.0,-999.0,66,-99.99,,,-99.99,,2013-01-26 16:02:00,
2013-01-26 10:12:00,45.0,33.0,30.16,SE,133,1.0,-999.0,62,-99.99,,,-99.99,,2013-01-26 16:12:00,
2013-01-26 10:22:00,45.0,33.0,30.16,SE,133,1.0,-999.0,62,-99.99,,,-99.99,,2013-01-26 16:22:00,
2013-01-26 10:32:00,45.0,33.0,30.16,ESE,116,1.0,-999.0,62,-99.99,,,-99.99,,2013-01-26 16:32:00,
2013-01-26 10:42:00,45.0,33.0,30.16,ESE,116,1.0,-999.0,62,-99.99,,,-99.99,,2013-01-26 16:42:00,
2013-01-26 10:53:00,47.0,34.0,30.16,SE,133,1.0,-999.0,60,-99.99,,,-99.99,,2013-01-26 16:53:00,
2013-01-26 11:03:00,47.0,33.0,30.17,SE,131,1.0,-999.0,57,-99.99,,,-99.99,,2013-01-26 17:03:00,
2013-01-26 11:12:00,47.0,33.0,30.17,SE,131,1.0,-999.0,57,-99.99,,,-99.99,,2013-01-26 17:12:00,
2013-01-26 11:22:00,49.0,32.0,30.16,ESE,117,0.0,-999.0,51,-99.99,,,-99.99,,2013-01-26 17:22:00,
2013-01-26 11:32:00,49.0,31.0,30.16,SE,138,1.0,-999.0,50,-99.99,,,-99.99,,2013-01-26 17:32:00,
2013-01-26 11:42:00,49.0,31.0,30.16,SE,138,1.0,-999.0,50,-99.99,,,-99.99,,2013-01-26 17:42:00,
2013-01-26 11:53:00,50.0,32.0,30.16,SSW,192,1.0,-999.0,49,-99.99,,,-99.99,,2013-01-26 17:53:00,
2013-01-26 12:02:00,50.0,32.0,30.15,SE,134,1.0,-999.0,49,-99.99,,,-99.99,,2013-01-26 18:02:00,
2013-01-26 12:12:00,50.0,32.0,30.15,SE,134,1.0,-999.0,49,-99.99,,,-99.99,,2013-01-26 18:12:00,
2013-01-26 12:22:00,50.0,29.0,30.14,South,188,2.0,-999.0,45,-99.99,,,-99.99,,2013-01-26 18:22:00,
2013-01-26 12:32:00,50.0,30.0,30.13,South,172,2.0,-999.0,46,-99.99,,,-99.99,,2013-01-26 18:32:00,
2013-01-26 12:42:00,50.0,30.0,30.13,South,172,2.0,-999.0,46,-99.99,,,-99.99,,2013-01-26 18:42:00,
2013-01-26 12:52:00,51.0,29.0,30.11,South,175,1.0,-999.0,43,-99.99,,,-99.99,,2013-01-26 18:52:00,
2013-01-26 13:03:00,51.0,30.0,30.11,ENE,73,1.0,-999.0,45,-99.99,,,-99.99,,2013-01-26 19:03:00,
2013-01-26 13:12:00,51.0,30.0,30.11,ENE,73,1.0,-999.0,45,-99.99,,,-99.99,,2013-01-26 19:12:00,
2013-01-26 13:22:00,52.0,30.0,30.09,ESE,106,1.0,-999.0,43,-99.99,,,-99.99,,2013-01-26 19:22:00,
2013-01-26 13:32:00,51.0,29.0,30.09,East,96,1.0,-999.0,43,-99.99,,,-99.99,,2013-01-26 19:32:00,
2013-01-26 13:42:00,51.0,29.0,30.09,East,96,1.0,-999.0,43,-99.99,,,-99.99,,2013-01-26 19:42:00,
2013-01-26 13:53:00,53.0,31.0,30.09,South,171,1.0,-999.0,42,-99.99,,,-99.99,,2013-01-26 19:53:00,
2013-01-26 14:02:00,52.0,30.0,30.08,SSW,203,1.0,-999.0,43,-99.99,,,-99.99,,2013-01-26 20:02:00,
2013-01-26 14:11:00,52.0,30.0,30.08,SSW,203,1.0,-999.0,43,-99.99,,,-99.99,,2013-01-26 20:11:00,
2013-01-26 14:21:00,52.0,31.0,30.07,SSE,150,1.0,-999.0,44,-99.99,,,-99.99,,2013-01-26 20:21:00,
2013-01-26 14:32:00,51.0,31.0,30.07,SE,133,1.0,-999.0,46,-99.99,,,-99.99,,2013-01-26 20:32:00,
2013-01-26 14:42:00,51.0,31.0,30.07,SE,133,1.0,-999.0,46,-99.99,,,-99.99,,2013-01-26 20:42:00,
2013-01-26 14:52:00,52.0,32.0,30.07,SSE,150,1.0,-999.0,46,-99.99,,,-99.99,,2013-01-26 20:52:00,
2013-01-26 15:02:00,52.0,32.0,30.06,South,174,0.0,-999.0,46,-99.99,,,-99.99,,2013-01-26 21:02:00,
2013-01-26 15:12:00,52.0,32.0,30.06,South,174,0.0,-999.0,46,-99.99,,,-99.99,,2013-01-26 21:12:00,
2013-01-26 15:22:00,52.0,32.0,30.06,SSW,202,1.0,-999.0,47,-99.99,,,-99.99,,2013-01-26 21:22:00,
2013-01-26 15:32:00,52.0,32.0,30.06,SSE,158,2.0,-999.0,47,-99.99,,,-99.99,,2013-01-26 21:32:00,
2013-01-26 15:42:00,52.0,32.0,30.06,SSE,158,2.0,-999.0,47,-99.99,,,-99.99,,2013-01-26 21:42:00,
2013-01-26 15:52:00,52.0,33.0,30.06,South,182,1.0,-999.0,48,-99.99,,,-99.99,,2013-01-26 21:52:00,
2013-01-26 16:01:00,51.0,32.0,30.06,ESE,109,1.0,-999.0,48,-99.99,,,-99.99,,2013-01-26 22:01:00,
2013-01-26 16:11:00,51.0,32.0,30.06,ESE,109,1.0,-999.0,48,-99.99,,,-99.99,,2013-01-26 22:11:00,
2013-01-26 16:21:00,51.0,33.0,30.04,South,179,1.0,-999.0,50,-99.99,,,-99.99,,2013-01-26 22:21:00,
2013-01-26 16:31:00,51.0,33.0,30.05,SE,143,1.0,-999.0,49,-99.99,,,-99.99,,2013-01-26 22:31:00,
2013-01-26 16:42:00,51.0,33.0,30.05,SE,143,1.0,-999.0,49,-99.99,,,-99.99,,2013-01-26 22:42:00,
2013-01-26 16:52:00,50.0,32.0,30.06,SE,126,0.0,-999.0,50,-99.99,,,-99.99,,2013-01-26 22:52:00,
2013-01-26 17:01:00,50.0,33.0,30.05,SE,144,1.0,-999.0,51,-99.99,,,-99.99,,2013-01-26 23:01:00,
2013-01-26 17:11:00,50.0,33.0,30.05,SE,144,1.0,-999.0,51,-99.99,,,-99.99,,2013-01-26 23:11:00,
2013-01-26 17:22:00,50.0,33.0,30.05,East,95,1.0,-999.0,51,-99.99,,,-99.99,,2013-01-26 23:22:00,
2013-01-26 17:32:00,50.0,34.0,30.06,SW,226,0.0,-999.0,54,-99.99,,,-99.99,,2013-01-26 23:32:00,
2013-01-26 17:41:00,50.0,34.0,30.06,SW,226,0.0,-999.0,54,-99.99,,,-99.99,,2013-01-26 23:41:00,
2013-01-26 17:52:00,49.0,34.0,30.06,SE,144,1.0,-999.0,56,-99.99,,,-99.99,,2013-01-26 23:52:00,
2013-01-26 18:02:00,49.0,34.0,30.06,SE,145,0.0,-999.0,56,-99.99,,,-99.99,,2013-01-27 00:02:00,
2013-01-26 18:11:00,49.0,34.0,30.06,SE,145,0.0,-999.0,56,-99.99,,,-99.99,,2013-01-27 00:11:00,
2013-01-26 18:21:00,48.0,33.0,30.06,East,90,1.0,-999.0,55,-99.99,,,-99.99,,2013-01-27 00:21:00,
2013-01-26 18:32:00,48.0,33.0,30.06,ESE,121,0.0,-999.0,55,-99.99,,,-99.99,,2013-01-27 00:32:00,
2013-01-26 18:41:00,48.0,33.0,30.06,ESE,121,0.0,-999.0,55,-99.99,,,-99.99,,2013-01-27 00:41:00,
2013-01-26 18:52:00,48.0,32.0,30.06,East,96,1.0,-999.0,53,-99.99,,,-99.99,,2013-01-27 00:52:00,
2013-01-26 19:01:00,48.0,31.0,30.05,SSE,162,1.0,-999.0,51,-99.99,,,-99.99,,2013-01-27 01:01:00,
2013-01-26 19:11:00,48.0,31.0,30.05,SSE,162,1.0,-999.0,51,-99.99,,,-99.99,,2013-01-27 01:11:00,
2013-01-26 19:22:00,47.0,29.0,30.06,SE,127,1.0,-999.0,50,-99.99,,,-99.99,,2013-01-27 01:22:00,
2013-01-26 19:32:00,47.0,29.0,30.05,SE,143,1.0,-999.0,50,-99.99,,,-99.99,,2013-01-27 01:32:00,
2013-01-26 19:41:00,47.0,29.0,30.05,SE,143,1.0,-999.0,50,-99.99,,,-99.99,,2013-01-27 01:41:00,
2013-01-26 19:52:00,47.0,29.0,30.05,East,96,1.0,-999.0,50,-99.99,,,-99.99,,2013-01-27 01:52:00,
2013-01-26 20:01:00,47.0,29.0,30.05,SE,141,1.0,-999.0,50,-99.99,,,-99.99,,2013-01-27 02:01:00,
2013-01-26 20:11:00,47.0,29.0,30.05,SE,141,1.0,-999.0,50,-99.99,,,-99.99,,2013-01-27 02:11:00,
2013-01-26 20:21:00,47.0,29.0,30.06,East,89,0.0,-999.0,50,-99.99,,,-99.99,,2013-01-27 02:21:00,
2013-01-26 20:31:00,47.0,30.0,30.05,SE,143,0.0,-999.0,51,-99.99,,,-99.99,,2013-01-27 02:31:00,
2013-01-26 20:41:00,47.0,30.0,30.05,SE,143,0.0,-999.0,51,-99.99,,,-99.99,,2013-01-27 02:41:00,
2013-01-26 20:52:00,47.0,30.0,30.05,East,93,1.0,-999.0,52,-99.99,,,-99.99,,2013-01-27 02:52:00,
2013-01-26 21:02:00,47.0,31.0,30.04,ESE,120,1.0,-999.0,53,-99.99,,,-99.99,,2013-01-27 03:02:00,
2013-01-26 21:11:00,47.0,31.0,30.04,ESE,120,1.0,-999.0,53,-99.99,,,-99.99,,2013-01-27 03:11:00,
2013-01-26 21:21:00,46.0,30.0,30.04,SE,143,1.0,-999.0,54,-99.99,,,-99.99,,2013-01-27 03:21:00,
2013-01-26 21:31:00,46.0,30.0,30.03,ESE,106,1.0,-999.0,54,-99.99,,,-99.99,,2013-01-27 03:31:00,
2013-01-26 21:42:00,46.0,30.0,30.03,ESE,106,1.0,-999.0,54,-99.99,,,-99.99,,2013-01-27 03:42:00,
2013-01-26 21:52:00,46.0,31.0,30.03,SSE,152,1.0,-999.0,55,-99.99,,,-99.99,,2013-01-27 03:52:00,
2013-01-26 22:01:00,46.0,31.0,30.02,SSE,151,1.0,-999.0,55,-99.99,,,-99.99,,2013-01-27 04:01:00,
2013-01-26 22:11:00,46.0,31.0,30.02,SSE,151,1.0,-999.0,55,-99.99,,,-99.99,,2013-01-27 04:11:00,
2013-01-26 22:21:00,46.0,31.0,30.02,SE,136,1.0,-999.0,55,-99.99,,,-99.99,,2013-01-27 04:21:00,
2013-01-26 22:32:00,46.0,32.0,30.01,South,188,1.0,-999.0,57,-99.99,,,-99.99,,2013-01-27 04:32:00,
2013-01-26 22:41:00,46.0,32.0,30.01,South,188,1.0,-999.0,57,-99.99,,,-99.99,,2013-01-27 04:41:00,
2013-01-26 22:52:00,46.0,32.0,30.02,SE,124,1.0,-999.0,58,-99.99,,,-99.99,,2013-01-27 04:52:00,
2013-01-26 23:03:00,46.0,32.0,30.02,SE,144,1.0,-999.0,58,-99.99,,,-99.99,,2013-01-27 05:03:00,
2013-01-26 23:12:00,46.0,32.0,30.02,SE,144,1.0,-999.0,58,-99.99,,,-99.99,,2013-01-27 05:12:00,
2013-01-26 23:22:00,46.0,33.0,30.01,SE,133,1.0,-999.0,60,-99.99,,,-99.99,,2013-01-27 05:22:00,
2013-01-26 23:32:00,46.0,33.0,30.01,South,176,1.0,-999.0,60,-99.99,,,-99.99,,2013-01-27 05:32:00,
2013-01-26 23:41:00,46.0,33.0,30.01,South,176,1.0,-999.0,60,-99.99,,,-99.99,,2013-01-27 05:41:00,
2013-01-26 23:52:00,46.0,33.0,30.01,South,181,1.0,-999.0,61,-99.99,,,-99.99,,2013-01-27 05:52:00,